Wind_Speed
28 28 28 28 28 28 29 29 29 28 28 27 26 27 28 29 30 32 33 35 36 37 38 40 41 42 43 44 45 46 47 48 49 50 51 51 52 52 52 53 53 53 53 53 52 52 52 52 53 53 54 55 56 57 57 56 54 54 55 57 57 57 57 58 59 59 59 59 59 60 60 60 60 61 61 61 60 57 53 51 50 49 48 50 53
29 29 29 29 28 29 29 29 29 28 28 28 28 29 30 31 33 34 35 37 38 39 40 42 42 43 44 45 46 47 48 49 50 51 52 53 53 53 53 53 53 52 52 52 51 51 51 51 52 53 55 57 57 58 58 54 51 52 54 56 56 56 57 57 58 58 58 58 59 60 60 60 60 61 61 59 56 53 51 50 49 49 49 51 54
30 30 30 30 30 31 31 30 30 30 29 30 30 31 33 34 35 36 37 38 40 41 42 43 44 45 46 47 48 49 50 51 52 53 53 53 53 53 53 52 51 50 50 50 50 50 50 50 51 52 55 57 56 54 53 50 50 54 56 55 55 56 56 56 57 57 57 58 59 60 60 61 61 61 59 55 52 50 49 49 49 49 50 53 56
32 32 32 32 33 33 33 32 32 31 32 32 33 34 35 36 37 38 39 40 42 43 44 45 46 47 48 49 50 51 51 52 53 53 53 53 53 52 51 49 49 49 49 49 49 50 49 50 50 50 51 53 53 50 49 51 55 57 55 53 54 54 55 56 56 57 58 60 60 60 61 62 62 59 54 51 49 49 49 49 49 50 52 54 58
33 34 34 35 35 35 35 34 34 34 35 36 36 37 38 38 39 40 41 42 44 45 46 47 48 49 49 50 51 51 52 52 52 52 52 51 51 49 48 48 47 48 48 49 49 50 49 50 50 49 49 51 50 49 51 54 54 53 52 52 53 54 55 55 56 58 59 60 61 61 62 61 58 53 49 47 48 48 48 49 50 52 54 57 59
35 36 36 37 37 37 37 36 36 37 38 39 40 40 40 41 41 42 44 45 46 47 47 48 49 49 50 51 51 51 51 51 50 50 49 49 48 47 46 46 47 47 48 49 49 49 49 49 49 49 50 48 47 48 51 50 49 50 50 51 53 54 54 55 58 59 59 60 61 61 60 57 52 47 45 46 47 48 49 50 52 54 57 59 60
37 38 39 39 39 40 39 39 40 40 41 42 42 42 42 43 44 45 46 46 47 47 48 48 48 48 49 49 49 49 49 48 47 47 46 46 45 45 45 46 47 48 49 49 49 49 49 49 48 48 47 46 47 50 49 47 47 48 48 50 52 53 55 56 56 56 56 58 60 60 58 54 49 45 45 45 47 48 50 52 54 57 59 60 61
39 40 41 41 41 41 41 41 42 43 43 44 44 44 44 45 45 46 47 46 46 46 46 46 46 47 48 48 48 48 47 46 45 45 45 45 45 46 47 48 48 49 50 50 50 49 49 48 48 47 45 45 46 47 46 46 47 47 48 50 52 53 53 53 53 55 56 58 59 59 57 54 49 47 46 47 48 50 52 55 57 59 60 61 61
42 42 43 43 43 43 43 43 44 44 45 45 45 45 45 46 47 47 46 44 44 44 44 45 46 47 47 47 47 46 45 44 44 44 44 45 46 48 49 49 50 50 49 48 47 46 45 45 45 45 45 45 45 44 44 46 47 47 48 50 50 51 50 51 54 58 59 59 59 58 55 51 49 48 48 49 51 53 55 57 59 60 61 61 61
45 45 46 46 46 45 45 45 45 46 46 46 46 46 46 47 46 44 43 42 42 42 44 46 47 47 47 46 45 43 42 42 43 44 45 46 48 49 49 48 47 46 44 43 42 41 41 42 43 43 43 43 43 42 44 46 47 48 48 48 48 49 51 55 59 61 60 60 59 56 53 50 49 50 50 51 53 55 57 58 59 60 61 62 62
47 48 48 47 47 47 47 47 47 48 48 47 47 47 47 45 43 41 40 41 42 44 45 46 46 45 45 43 42 42 42 42 43 44 45 46 46 45 44 43 41 40 39 39 39 39 40 40 41 42 42 42 41 42 45 47 47 46 46 46 48 52 57 60 60 59 59 57 56 54 52 50 50 51 53 54 56 57 58 58 59 60 61 62 62
49 49 49 49 49 49 49 49 49 48 48 47 47 46 45 42 39 40 41 42 44 45 45 45 44 44 42 42 41 41 41 42 42 43 43 43 42 40 39 38 37 37 38 38 39 39 40 40 40 41 42 41 41 42 44 44 43 43 46 48 52 56 58 57 55 55 54 53 52 52 51 51 53 54 55 56 57 58 58 58 59 60 61 62 63
51 50 50 50 50 50 50 49 49 49 48 47 46 44 41 39 39 40 41 42 43 43 43 43 42 41 40 39 39 39 40 40 40 40 40 39 38 37 36 36 36 36 37 38 40 40 40 40 40 40 40 41 41 42 42 42 43 45 48 51 54 55 54 53 53 53 52 52 53 52 52 53 55 55 56 57 57 57 57 58 59 60 62 63 64
52 52 51 51 51 51 50 50 49 48 47 45 44 41 39 39 39 40 40 40 41 41 40 39 38 37 37 37 37 37 37 38 38 37 37 36 36 35 35 35 36 37 38 39 40 41 41 41 41 40 40 41 42 41 41 42 44 46 49 51 53 54 54 54 54 53 53 54 54 54 54 54 55 55 56 57 57 57 58 59 61 62 64 65 66
53 53 52 52 52 52 51 50 49 47 45 44 42 40 39 39 38 37 37 38 39 39 37 36 35 35 34 34 34 34 34 35 35 35 35 34 34 35 35 35 36 37 39 40 41 41 42 42 42 42 41 42 43 43 43 44 45 47 50 52 53 53 53 54 54 54 55 56 55 55 54 55 56 56 57 58 58 59 60 62 63 65 66 67 67
54 53 53 53 53 53 51 50 48 46 44 42 41 40 39 37 35 35 35 37 38 37 35 34 34 33 31 30 30 31 32 33 34 34 33 34 34 35 36 36 37 38 40 41 42 42 43 44 44 44 44 45 45 46 46 47 48 50 51 52 52 52 52 53 54 55 56 56 56 56 56 57 58 59 59 60 60 61 63 64 65 67 68 69 68
54 54 54 54 54 53 51 48 46 45 43 42 41 40 37 34 33 33 34 35 36 36 35 34 32 29 28 28 28 30 32 33 33 33 33 34 35 37 38 38 39 40 41 42 43 44 44 45 45 45 46 46 47 48 49 50 51 51 52 52 53 52 52 53 55 55 56 57 57 58 58 59 60 61 62 63 63 64 65 66 67 69 70 70 70
55 55 55 55 54 52 49 47 45 44 43 43 41 39 36 33 32 32 33 34 35 35 34 31 28 27 28 29 30 32 33 34 34 34 35 36 37 38 39 40 40 42 42 43 43 44 45 45 45 46 46 47 47 48 49 51 51 52 53 53 53 52 53 55 56 56 56 57 58 59 60 60 61 62 63 64 65 66 67 68 69 71 71 72 72
55 56 56 55 53 50 48 46 45 45 44 43 42 38 34 32 31 31 32 33 34 33 31 29 28 29 30 31 32 34 35 34 35 36 36 37 38 40 40 41 42 43 43 43 44 45 44 45 45 45 46 46 47 48 50 51 52 52 53 53 53 53 54 56 56 56 58 59 59 61 61 62 64 64 65 66 67 68 69 70 71 72 72 72 73
56 57 56 54 51 49 47 46 45 45 46 44 42 38 34 32 32 32 32 32 32 31 30 30 32 33 33 34 36 37 37 36 37 38 38 39 41 42 42 42 43 44 44 45 46 45 45 45 45 45 46 46 47 49 50 51 52 53 53 54 54 55 56 57 57 58 59 60 61 62 63 64 65 65 66 68 68 69 70 71 72 72 72 72 73
56 57 55 53 51 49 48 47 46 47 47 46 43 39 36 35 35 34 34 33 32 32 32 34 36 36 37 38 39 40 39 39 39 40 41 42 43 44 44 44 45 46 47 47 47 46 46 46 45 45 46 47 48 50 51 52 53 53 54 54 55 56 56 58 59 60 61 62 62 63 64 65 65 66 68 69 69 70 71 72 72 73 73 73 73
57 57 55 53 51 50 49 48 48 49 49 47 44 42 40 38 37 37 37 36 36 36 37 38 39 40 41 42 42 42 42 42 42 42 43 44 45 45 46 46 47 47 48 48 48 48 47 47 47 47 48 49 50 51 52 53 53 54 55 56 56 57 57 58 59 60 61 62 63 64 64 65 66 67 68 69 70 71 72 72 72 72 72 72 71
57 57 55 53 52 51 50 50 50 51 50 49 46 44 43 41 40 40 40 40 40 41 41 41 42 43 43 44 43 44 44 44 44 44 45 45 46 46 47 47 47 48 48 48 48 48 48 48 49 49 50 51 52 53 53 54 55 56 56 57 58 58 58 59 60 61 62 62 63 64 64 65 66 67 69 69 70 71 72 72 72 71 71 70 69
57 57 55 53 52 52 51 52 52 52 52 50 48 47 45 43 42 43 43 43 43 44 45 46 46 45 45 45 45 45 45 46 46 46 46 47 47 48 48 48 48 48 48 48 49 49 49 50 50 51 53 53 54 55 56 57 57 58 58 58 59 59 59 60 61 61 62 62 63 64 65 66 67 68 68 69 70 71 72 72 72 71 70 68 68
57 56 54 53 53 52 52 53 54 54 53 51 50 49 48 46 45 46 46 46 46 47 48 48 47 47 46 46 46 46 46 46 47 47 47 48 48 48 49 49 49 49 49 48 49 49 50 51 52 54 55 56 57 57 58 58 59 59 59 60 60 60 60 61 62 62 63 63 64 65 65 66 67 68 68 68 70 71 71 72 71 70 69 67 67
56 55 54 53 53 53 53 54 54 54 54 52 51 50 50 49 49 49 50 50 50 49 49 48 47 47 47 47 47 47 46 46 47 47 48 48 49 49 49 50 51 51 50 49 50 51 52 53 54 56 57 58 58 59 59 59 59 60 60 61 61 62 62 62 63 64 64 64 65 66 66 66 66 67 67 69 70 71 72 71 71 69 68 68 68
56 55 55 54 54 54 54 55 55 55 54 53 52 52 52 51 51 51 52 52 52 51 50 49 48 48 47 47 47 47 47 47 48 48 49 49 50 50 50 51 52 52 51 51 52 53 54 55 56 57 58 59 59 59 60 60 60 61 62 62 63 63 64 64 65 65 65 66 66 66 65 65 65 66 68 70 72 72 73 72 71 70 69 70 70
56 56 55 55 55 55 55 55 55 55 55 54 52 52 53 52 52 52 53 54 54 53 52 50 49 48 48 48 48 48 48 49 49 50 50 50 51 51 51 52 53 53 53 53 54 54 55 56 57 58 59 60 60 61 61 61 62 63 63 64 64 65 65 65 66 66 66 67 66 65 65 65 66 67 69 71 72 73 74 73 73 72 72 73 73
56 56 56 56 55 55 55 56 56 56 56 54 53 53 54 53 53 53 54 54 54 54 53 52 51 50 49 49 49 49 50 50 50 51 51 51 51 52 52 53 53 54 54 55 55 56 57 58 59 59 60 61 62 62 63 63 63 64 65 65 66 66 66 67 67 67 67 67 66 66 66 66 68 69 71 72 73 74 75 75 74 74 75 76 77
56 56 56 55 55 55 56 56 57 57 56 55 54 54 54 54 54 54 54 54 53 53 53 52 52 52 51 50 50 50 50 50 51 51 51 52 52 53 53 54 54 55 55 56 57 58 58 59 60 61 62 63 63 64 64 64 65 65 66 67 67 67 67 67 67 67 67 67 67 67 68 69 70 71 73 74 75 77 77 77 77 78 79 80 82
56 56 55 55 55 55 56 57 57 56 56 55 55 55 55 55 55 54 54 54 53 53 53 53 53 53 52 51 50 50 50 51 51 51 52 52 53 54 54 55 56 56 57 57 58 59 59 60 61 62 63 63 64 64 65 65 66 66 67 68 68 68 68 68 68 68 68 68 68 69 70 71 72 74 75 76 78 79 81 81 82 83 84 86 88
56 55 55 55 55 56 57 57 57 57 56 56 56 57 56 56 55 55 54 54 54 54 54 54 54 54 53 52 52 51 51 52 52 52 53 54 54 55 55 56 57 57 58 59 59 60 61 62 63 63 64 64 65 65 66 66 67 67 68 68 69 69 69 69 70 70 70 70 71 72 73 74 75 76 77 78 80 82 83 84 86 87 89 91 93
55 55 56 56 56 56 57 57 57 57 57 57 58 57 57 56 56 56 56 56 56 56 56 55 55 54 54 53 53 53 53 53 53 54 54 55 56 56 57 57 58 59 59 60 61 62 63 63 64 65 65 65 66 66 67 67 68 68 68 69 69 70 71 71 72 73 73 73 74 75 75 76 77 78 79 81 82 85 86 88 90 92 93 95 97
56 57 57 57 56 56 57 57 57 57 57 58 58 57 57 57 56 57 57 57 57 56 56 55 55 55 55 54 54 55 55 55 55 55 56 56 57 57 58 58 59 60 61 62 63 64 65 65 66 66 66 67 67 67 68 68 68 69 69 70 71 72 73 74 74 75 75 76 76 77 78 78 79 80 82 84 86 88 90 93 95 96 98 99 100
56 56 56 56 56 56 56 56 56 56 57 57 57 57 57 57 57 57 57 57 57 56 56 56 56 56 56 56 56 56 56 56 56 57 57 58 58 59 59 60 60 61 62 63 64 65 66 67 67 67 67 67 68 68 69 69 70 70 71 72 73 74 75 76 76 76 77 78 78 79 80 81 82 83 85 87 90 92 94 97 99 100 101 102 102
56 56 56 56 56 56 56 56 56 56 57 57 57 57 57 57 57 57 57 57 57 57 57 57 57 57 57 57 57 57 57 57 58 58 59 59 60 60 61 61 62 63 64 65 66 67 67 67 67 67 67 68 69 69 70 70 71 72 73 74 75 76 76 77 77 77 78 79 80 81 82 83 85 87 89 91 94 96 98 100 102 104 104 104 104
56 56 56 56 56 55 55 56 56 57 57 58 57 57 57 57 57 57 57 58 58 58 58 58 58 58 58 59 59 59 59 59 59 60 60 61 61 61 62 63 64 64 65 66 67 67 67 67 67 67 68 69 69 70 71 71 72 74 75 76 77 78 78 78 78 79 80 81 82 83 85 87 89 92 94 96 98 100 102 104 106 107 106 106 104
56 56 55 55 55 55 56 56 57 58 58 58 58 58 57 57 58 58 58 59 59 59 59 59 59 60 60 60 60 60 60 61 61 62 62 62 63 64 64 65 66 66 67 67 67 67 67 67 67 68 69 70 70 71 71 72 74 75 77 78 79 79 80 80 80 81 82 83 84 86 88 91 93 96 98 100 102 103 105 107 108 108 107 105 103
57 56 56 56 56 56 57 57 58 58 58 58 58 58 58 58 59 59 60 60 60 60 60 60 61 61 61 61 61 62 62 63 63 63 64 64 65 66 66 67 67 68 68 68 67 67 67 67 68 69 70 71 71 72 73 74 76 77 78 80 80 81 82 82 82 83 84 86 88 90 92 94 97 99 101 103 104 106 108 109 109 108 106 103 101
59 58 57 57 57 57 57 58 58 58 58 58 58 59 59 60 60 61 61 62 62 62 63 63 63 63 63 63 63 64 64 65 65 66 66 67 67 68 68 68 69 69 68 68 68 67 68 68 69 71 72 72 73 74 76 77 79 80 80 81 82 82 83 83 84 85 87 89 90 93 95 97 99 101 103 105 107 109 109 109 108 106 104 102 100
61 59 58 58 57 57 58 58 58 58 58 58 59 60 61 62 62 63 63 63 64 64 64 65 65 65 65 65 66 66 67 67 67 68 68 69 69 69 70 70 70 69 69 69 69 68 69 70 71 73 74 76 77 79 80 81 82 83 83 84 84 84 84 85 86 88 90 91 93 96 98 100 102 104 106 108 109 110 110 108 107 105 103 101 100
61 59 58 58 58 58 58 58 58 59 59 60 61 62 63 63 64 64 65 65 65 66 66 66 67 67 67 67 68 68 69 69 69 70 70 70 70 71 71 71 71 71 71 71 70 70 71 73 75 77 78 80 81 82 83 84 85 86 86 86 86 86 87 88 89 91 93 94 96 99 101 103 105 107 108 110 110 109 108 107 105 103 102 100 98
61 60 60 59 59 59 59 60 60 61 62 62 63 64 64 65 65 66 66 67 67 67 68 68 68 68 69 69 69 69 70 70 70 71 71 71 71 72 72 72 72 71 72 72 72 73 75 77 79 80 82 83 84 85 86 87 87 88 88 88 89 89 90 91 92 94 96 98 100 102 104 106 107 109 109 110 109 108 106 104 103 101 99 96 93
63 62 62 61 61 61 62 63 63 63 64 64 65 66 66 67 67 68 68 68 69 69 69 69 69 70 70 70 70 70 70 71 71 71 71 72 72 72 72 72 72 72 73 74 75 76 78 80 82 83 84 85 86 87 88 89 90 90 90 91 91 92 93 94 96 97 99 101 103 105 106 107 108 109 109 108 107 105 103 101 99 96 92 89 85
64 64 63 63 63 64 65 65 65 66 66 66 67 67 68 69 69 69 69 70 70 70 70 70 70 70 70 70 70 71 71 71 71 72 72 73 73 74 74 74 74 74 75 76 77 79 81 82 84 85 86 87 88 89 90 91 92 93 93 94 94 95 96 97 99 101 103 104 105 106 107 107 107 107 106 104 103 100 98 95 91 87 83 80 77
67 67 66 66 66 66 66 67 67 67 67 68 68 69 70 70 70 71 71 71 71 71 70 70 70 70 70 70 70 71 71 71 72 72 73 74 75 75 75 75 76 76 78 79 81 83 84 85 86 87 88 89 91 92 93 94 95 95 96 96 97 98 99 101 102 104 105 106 106 106 106 105 104 103 101 99 96 93 90 85 81 78 75 72 70
69 69 68 68 67 67 67 68 68 68 69 69 70 70 71 71 72 72 71 71 70 70 69 69 69 68 69 69 70 71 71 72 72 73 74 75 75 76 76 77 78 80 82 83 85 87 88 88 89 89 91 92 93 94 95 96 96 97 97 98 99 101 102 103 105 106 106 105 104 103 102 100 98 96 94 91 87 83 79 75 72 69 68 66 65
69 68 68 68 68 68 68 69 70 70 71 71 72 72 72 73 72 72 72 71 70 69 69 68 68 68 69 71 72 72 73 73 74 75 76 76 77 78 79 80 82 84 86 87 89 90 90 90 91 92 93 94 95 96 97 97 98 98 99 100 102 103 104 105 105 105 103 102 99 98 96 94 91 88 85 81 77 73 69 66 64 63 62 61 60
68 68 68 68 69 69 70 71 72 72 73 73 73 73 73 73 73 72 72 71 70 69 68 68 69 71 72 73 74 74 75 75 76 76 77 78 79 80 82 84 86 88 90 91 92 92 92 92 93 94 95 96 97 97 98 99 99 100 101 102 104 105 105 105 103 101 99 96 93 91 88 85 82 78 74 70 66 63 61 59 58 58 57 57 56
69 70 70 70 71 71 72 73 74 74 74 74 74 74 73 74 73 73 72 71 70 70 70 71 72 74 75 76 76 76 77 77 78 79 80 81 82 83 85 87 89 91 93 94 94 93 94 94 95 96 97 98 98 99 100 100 101 102 103 104 105 105 103 101 99 96 93 89 86 83 80 76 72 68 64 60 58 56 55 54 54 54 53 52 51
71 71 71 72 73 74 75 75 75 75 74 74 74 75 75 75 74 73 73 72 71 71 72 73 75 76 77 78 78 78 79 80 81 82 83 84 86 87 89 91 92 93 94 94 94 95 96 97 97 98 98 99 100 100 101 102 103 104 104 105 104 102 99 96 93 89 86 83 79 75 70 66 62 59 56 53 52 51 50 50 50 50 49 48 48
Wind_Direction
256 257 257 258 258 259 260 261 263 265 267 268 268 269 270 271 273 274 276 278 279 280 281 281 281 282 282 283 284 285 285 286 287 287 288 288 289 290 290 291 292 293 293 295 296 296 297 299 299 299 299 299 297 296 296 296 296 297 299 300 301 301 301 301 302 303 304 304 304 304 304 303 303 303 302 301 301 303 305 305 306 308 308 309 309
255 255 255 256 257 258 259 261 262 263 263 264 265 266 268 270 271 274 275 276 277 278 278 279 280 280 281 282 282 283 283 284 285 285 286 288 289 290 291 292 293 294 295 296 297 298 299 300 300 299 299 299 297 296 294 291 293 299 302 303 304 304 303 304 305 305 306 306 306 305 305 305 305 304 302 301 303 305 304 304 306 306 307 308 308
255 255 255 256 257 258 259 260 260 260 260 261 263 265 267 269 271 273 274 274 275 276 276 277 277 278 278 279 280 281 282 283 285 286 288 289 291 292 293 294 296 297 297 298 299 300 301 301 300 300 300 300 299 298 293 290 297 305 306 305 305 305 305 305 306 306 307 307 306 306 306 307 306 303 302 303 304 303 303 304 305 306 307 307 306
256 256 256 256 257 259 260 260 260 260 261 262 264 267 268 270 272 273 274 274 274 274 275 276 276 277 278 279 281 282 284 285 287 289 290 291 292 294 295 296 298 299 299 300 301 301 300 298 298 299 300 301 300 298 295 295 301 306 305 303 304 305 305 306 306 307 307 307 307 307 308 307 305 304 304 304 303 302 303 304 304 305 306 305 305
256 256 256 257 258 260 261 261 261 262 263 265 266 268 269 271 272 273 273 273 274 274 276 277 277 279 280 281 283 284 286 287 288 290 291 292 293 294 296 299 300 300 301 301 300 298 297 298 299 301 302 301 297 296 297 299 301 303 301 301 303 305 305 305 306 306 307 307 308 309 307 305 304 305 304 303 302 303 303 303 304 304 304 304 305
256 257 257 259 260 262 262 262 262 263 263 265 266 267 268 270 272 272 272 273 274 275 276 277 279 280 282 283 284 286 287 288 289 290 292 293 295 298 300 301 301 300 300 299 299 299 301 303 304 306 305 302 298 298 301 302 301 300 299 300 302 304 305 305 306 307 309 310 310 309 307 306 306 305 304 303 303 303 302 302 302 303 303 304 305
255 256 258 260 260 261 261 261 261 261 262 263 265 266 268 270 272 272 273 273 275 276 277 279 281 283 284 286 287 288 289 291 292 294 296 298 299 300 300 300 300 300 300 302 303 305 307 308 309 309 307 303 302 303 305 303 301 300 300 302 303 305 306 307 308 310 311 311 310 309 309 308 306 304 303 302 301 300 300 301 301 302 303 304 305
255 257 258 259 260 259 259 259 259 260 261 263 265 267 269 271 272 273 274 276 277 280 282 284 286 287 288 288 289 291 292 294 295 297 298 299 299 299 299 299 300 302 303 305 307 308 310 311 312 311 309 307 306 305 302 301 302 303 303 303 304 306 307 307 308 310 310 309 309 309 308 306 304 302 300 299 298 298 299 301 302 303 303 304 305
258 259 260 260 260 259 258 259 259 261 262 264 266 268 270 272 273 275 276 279 281 284 285 287 287 288 289 290 291 292 294 295 296 297 297 297 297 298 299 300 301 303 304 306 308 310 313 313 313 312 311 310 308 305 301 301 303 303 302 302 303 304 305 306 307 308 308 307 308 307 306 304 302 300 298 298 299 300 301 302 303 303 303 304 305
260 261 261 260 259 259 259 260 261 262 263 265 266 268 271 273 274 276 279 281 283 284 285 286 287 288 289 290 291 292 293 294 295 295 295 296 297 298 299 300 302 304 306 308 310 313 314 315 314 314 313 313 311 306 303 303 303 301 299 301 301 302 304 307 307 308 308 308 308 306 305 303 301 300 300 301 301 302 303 303 303 303 304 305 306
259 259 259 259 259 259 259 260 262 263 264 265 267 269 271 274 276 278 280 281 283 285 286 286 287 287 288 289 291 292 293 293 294 295 295 297 298 299 301 302 304 306 308 310 312 314 315 315 315 315 315 314 311 305 302 302 300 299 300 302 302 304 307 308 308 308 309 309 308 307 306 304 302 302 302 302 302 303 303 303 303 304 305 305 306
258 258 258 258 257 258 259 260 262 263 264 266 268 270 273 274 276 278 280 282 284 285 286 286 287 288 289 291 292 293 293 294 295 296 296 297 298 300 301 302 304 306 308 311 312 313 315 315 316 315 314 313 312 308 304 303 301 301 302 303 302 304 306 307 308 309 310 310 309 308 306 304 304 304 303 303 303 303 303 303 304 304 304 305 305
257 257 257 257 257 258 259 260 262 263 264 266 268 271 273 273 275 278 281 283 285 285 286 287 289 291 292 293 293 293 294 295 295 296 297 298 299 300 301 303 305 307 309 311 312 313 315 315 314 313 312 312 313 311 308 306 305 303 302 301 302 304 307 308 309 309 309 309 308 307 306 305 304 304 304 303 303 303 303 304 304 304 305 305 306
257 257 256 257 257 258 259 261 262 263 264 266 269 270 270 271 274 279 282 284 285 286 288 290 292 292 292 292 293 294 294 295 296 297 297 298 299 301 302 304 306 308 309 311 311 313 314 313 312 312 311 311 312 310 308 306 305 303 302 303 304 306 308 308 308 307 307 306 305 305 305 305 304 304 305 304 303 303 304 305 306 306 306 307 308
256 257 257 258 258 259 260 261 261 262 264 266 267 266 267 271 276 281 284 286 288 289 290 291 291 292 292 293 294 294 295 296 297 297 297 299 300 301 303 305 306 307 308 309 311 312 313 312 312 311 311 310 310 309 308 307 305 305 305 305 306 307 306 306 306 305 305 304 304 305 305 305 305 305 306 306 305 305 305 306 307 307 307 308 309
255 256 257 258 259 259 260 260 261 262 264 265 264 263 267 273 278 282 286 289 289 289 289 290 291 291 292 292 292 293 294 293 293 294 296 299 300 301 303 305 306 307 308 310 311 312 312 313 312 312 311 311 311 311 311 310 309 308 308 307 307 307 306 305 304 304 304 304 304 305 305 305 305 306 306 306 306 306 306 306 306 307 307 308 309
254 255 256 257 258 259 259 260 262 263 264 263 261 263 268 273 278 283 287 288 288 287 287 288 288 287 286 286 287 288 288 289 291 294 296 297 299 302 304 305 307 308 309 310 311 312 313 313 312 313 313 313 313 313 313 312 311 310 309 308 308 307 305 304 304 304 304 304 304 304 305 305 305 305 306 306 307 307 306 306 307 307 308 309 311
255 255 255 256 257 258 259 260 262 262 261 259 260 264 268 271 276 281 284 285 285 284 283 283 281 278 279 281 282 283 285 287 291 293 294 297 299 302 303 305 307 307 308 310 311 311 311 312 313 314 315 315 315 315 314 313 312 311 310 309 308 306 304 303 304 305 305 305 305 305 306 306 306 307 307 307 307 307 307 308 308 309 310 312 313
254 255 256 256 257 257 258 259 259 259 258 257 259 263 265 268 272 276 278 279 280 280 278 274 271 272 276 278 278 279 282 285 288 290 292 295 297 299 301 303 304 305 307 309 309 309 310 311 313 313 314 314 314 314 313 313 312 310 309 308 307 305 304 304 305 306 306 306 307 307 307 308 308 308 308 308 308 308 308 309 309 310 312 313 312
253 254 255 256 257 257 257 257 256 256 255 256 259 261 261 263 266 269 271 273 274 273 270 266 267 271 274 275 276 277 279 281 284 286 289 292 294 296 298 300 302 304 305 306 306 307 308 309 310 311 312 312 312 312 312 311 310 309 308 307 306 305 305 305 306 306 306 307 307 307 308 308 308 308 308 308 308 308 308 309 310 311 312 311 310
252 253 254 255 256 256 256 256 255 254 254 255 257 258 257 258 261 264 266 268 267 266 265 265 267 270 271 272 274 276 278 280 282 285 287 289 292 295 297 299 301 302 304 304 305 306 306 307 308 309 310 310 310 310 310 310 309 309 308 307 307 306 306 306 306 306 306 307 307 307 308 308 308 308 307 307 307 308 308 309 310 311 311 310 310
250 251 253 254 254 255 255 255 254 253 254 255 256 256 256 256 258 261 264 265 265 265 265 266 267 269 269 271 273 276 278 281 283 285 287 289 292 295 297 299 300 302 303 304 304 305 305 306 307 308 308 309 309 309 309 308 308 308 307 307 307 307 306 306 306 306 306 306 306 307 307 307 307 307 306 306 307 307 308 309 310 310 310 310 309
249 250 252 253 253 253 253 253 253 253 253 255 256 257 257 257 258 260 261 263 265 266 266 266 266 267 269 271 274 276 279 281 283 285 288 290 293 294 296 298 300 301 302 303 303 304 305 305 306 307 307 308 308 307 307 307 307 307 307 307 307 307 306 306 305 305 305 306 306 306 306 305 305 306 306 306 307 308 309 309 310 310 310 310 310
249 250 251 251 252 252 252 252 252 252 254 255 257 258 258 258 258 258 260 261 262 263 265 265 266 268 271 273 276 277 279 282 284 287 289 291 292 294 296 298 300 301 301 302 303 303 304 305 305 305 306 306 306 306 306 307 307 307 307 307 307 306 306 305 305 305 305 305 305 305 304 304 305 305 305 306 308 309 310 311 311 310 310 310 310
249 250 250 250 251 251 252 252 253 253 254 256 258 259 260 259 259 259 259 260 261 262 263 265 268 270 273 275 277 279 281 284 286 288 290 291 293 294 296 298 299 299 300 301 302 302 303 303 303 304 304 305 305 306 306 307 307 307 306 306 306 305 304 304 304 304 304 304 304 303 303 304 304 304 305 306 308 310 311 311 311 310 310 310 310
249 249 250 250 251 251 252 252 253 253 255 257 259 260 261 261 260 260 260 262 263 264 266 268 269 272 274 276 279 281 283 286 288 289 291 292 293 295 296 297 298 298 299 300 300 301 301 302 302 302 303 304 305 305 305 305 305 305 304 304 304 303 303 303 303 303 303 303 303 303 303 303 303 304 305 306 309 311 312 312 311 310 310 310 310
250 250 250 250 251 252 252 253 254 254 256 258 260 261 262 263 263 264 264 265 266 268 269 271 272 274 277 279 281 284 286 287 289 290 291 292 293 294 295 296 296 296 297 298 299 299 300 300 301 302 302 303 303 303 303 303 303 303 303 303 302 302 302 303 303 303 303 303 303 303 303 302 303 303 305 307 309 311 312 311 311 311 311 311 311
250 251 251 251 252 252 253 255 255 256 258 259 261 262 264 265 266 266 267 267 268 270 272 273 275 277 279 280 282 284 286 287 288 289 290 292 292 293 294 294 295 295 296 297 298 298 298 299 299 300 301 301 301 301 302 302 302 302 302 302 302 302 302 303 303 303 303 303 303 302 302 301 302 304 305 307 310 311 312 312 311 311 311 311 312
252 252 252 253 253 254 255 257 258 258 260 261 262 264 265 267 268 269 269 269 270 272 273 274 276 278 279 280 282 283 284 285 286 288 289 290 291 291 292 293 294 295 295 296 296 296 297 297 298 299 300 300 301 301 301 301 301 301 301 302 302 302 303 303 303 303 303 302 302 301 301 301 303 305 307 309 311 312 313 312 312 311 311 311 312
252 252 253 254 255 256 257 258 260 260 262 263 264 265 267 268 270 271 272 273 274 275 275 276 277 278 279 280 281 282 283 284 286 287 288 289 290 291 292 293 293 294 294 294 294 295 295 296 298 299 300 300 300 300 301 301 301 301 302 302 303 303 303 303 303 303 302 301 300 300 301 303 305 307 309 311 313 314 314 313 312 312 312 311 311
252 253 254 255 256 257 258 260 261 263 264 265 266 267 269 270 271 273 274 276 277 277 277 278 278 279 280 280 281 282 283 284 285 286 288 289 290 291 291 292 292 292 292 293 294 294 296 297 298 299 299 299 299 300 300 301 301 302 302 302 303 303 303 303 303 302 301 300 300 301 303 305 307 309 310 312 314 314 314 313 312 312 312 311 311
253 254 255 256 257 258 259 261 263 265 266 267 268 269 270 271 273 274 276 276 277 277 278 278 279 279 280 280 281 282 283 284 285 287 288 289 289 290 291 291 291 291 292 293 294 295 296 297 297 298 298 298 299 299 300 301 301 302 302 303 303 303 303 303 303 302 301 300 301 303 305 306 308 309 311 312 313 314 313 313 312 312 311 311 311
253 254 255 256 257 259 261 262 264 266 267 268 269 270 272 273 274 275 276 276 277 277 277 278 278 279 280 280 281 282 284 285 286 287 288 288 289 289 290 290 291 291 292 293 294 295 296 296 297 298 298 298 299 299 300 300 301 301 302 302 303 303 303 303 303 302 301 301 302 304 305 307 308 309 310 311 312 312 312 312 312 311 311 310 310
252 253 254 256 258 260 261 263 265 266 268 269 271 272 273 274 274 275 276 276 276 277 277 277 278 279 280 281 282 283 284 285 286 286 287 288 288 289 289 290 291 292 293 293 294 295 296 296 297 298 298 299 299 299 300 301 301 302 302 303 303 303 303 303 303 302 302 302 303 304 306 307 308 308 309 310 310 310 311 311 311 311 310 310 309
251 252 254 256 258 260 262 264 266 267 269 270 271 272 273 273 274 274 275 276 276 277 278 279 279 280 281 281 282 283 284 285 285 286 286 287 288 288 289 290 291 292 292 293 294 295 296 297 297 298 298 298 299 300 300 301 302 302 303 303 303 304 304 304 303 303 303 303 304 305 306 307 308 308 309 309 309 310 310 310 310 310 310 309 309
252 253 255 257 259 261 263 264 266 267 269 270 271 272 273 273 273 274 275 276 277 278 278 279 279 280 281 282 282 283 284 284 285 285 286 287 287 288 289 290 290 291 292 293 294 295 296 296 297 297 298 298 299 300 301 302 303 304 304 304 304 304 304 303 303 303 303 303 304 305 306 307 308 308 309 309 309 309 309 310 310 310 310 309 309
253 254 255 257 259 260 262 264 266 267 269 270 271 271 272 272 273 274 275 276 276 277 277 278 278 279 280 281 281 282 283 283 284 285 285 286 287 288 289 289 290 291 291 292 293 294 295 296 296 297 297 298 300 301 303 304 305 305 305 305 304 304 303 303 302 303 303 304 305 306 307 307 308 308 308 308 308 309 309 310 310 310 310 309 308
254 255 256 258 259 261 263 264 266 267 268 269 270 271 272 272 273 274 274 275 275 275 276 277 278 278 279 280 280 281 282 283 284 284 285 286 287 288 288 289 289 290 291 292 293 294 294 295 295 296 297 299 301 303 304 305 306 306 306 305 305 304 303 302 302 303 303 304 305 306 306 307 307 307 307 308 308 308 309 309 310 309 309 309 308
256 257 258 259 260 262 263 264 265 267 268 269 270 271 272 272 273 273 274 274 274 275 276 277 277 278 279 280 281 282 283 283 284 284 285 286 287 287 288 288 289 290 291 292 293 293 294 294 296 297 299 300 302 303 304 306 306 307 306 306 305 304 304 303 303 303 304 305 305 306 307 307 307 307 307 308 308 308 309 309 309 309 309 309 308
257 258 258 259 260 261 262 263 264 266 267 268 270 271 272 272 273 273 274 274 275 275 276 277 278 279 280 280 281 282 283 283 284 285 285 286 286 287 287 288 289 290 292 293 293 293 294 295 297 299 300 301 302 304 305 306 307 307 307 307 306 305 304 304 304 304 305 306 306 307 307 307 307 307 308 308 308 308 309 309 310 310 309 308 307
257 257 258 259 259 260 262 263 264 265 267 268 269 270 271 272 272 273 273 274 275 276 277 278 279 279 280 281 282 283 283 284 284 285 285 286 287 287 288 289 290 292 292 293 293 293 294 296 298 299 301 302 303 304 306 307 307 307 307 307 307 306 306 305 305 306 306 307 307 307 307 307 307 308 308 308 309 309 310 310 310 310 309 308 307
256 257 258 259 259 260 261 262 264 265 266 267 268 269 270 270 271 272 273 274 275 276 277 278 279 280 281 282 282 283 283 284 285 285 286 287 287 288 289 291 292 292 293 293 293 294 295 297 299 300 302 303 304 305 305 306 307 307 307 307 307 307 306 306 306 307 307 307 307 307 307 308 308 308 308 309 309 310 310 310 310 310 309 308 307
256 257 258 259 259 260 261 262 263 264 265 266 267 268 269 270 271 272 273 274 275 277 278 279 280 280 281 281 282 282 283 284 285 286 287 287 288 289 290 291 292 292 292 292 293 294 296 298 300 301 303 303 304 304 305 306 306 307 307 307 307 307 307 307 307 307 307 307 308 308 308 308 308 308 309 310 310 310 310 310 310 309 309 308 307
256 257 258 258 259 260 261 262 264 265 266 267 267 268 269 270 271 272 274 275 276 277 278 278 279 279 280 281 282 283 284 284 285 286 287 288 288 289 290 291 291 292 292 293 294 296 298 299 301 302 302 303 303 304 305 306 306 307 307 307 307 307 307 307 307 307 307 307 308 308 308 308 309 309 310 310 311 311 310 310 310 309 309 308 306
257 258 258 259 260 261 262 264 265 266 266 267 268 268 269 270 271 272 274 275 276 277 277 278 279 280 281 282 283 283 284 285 286 287 287 288 288 289 290 291 292 293 294 295 297 298 299 299 300 301 302 303 304 305 305 306 306 307 307 307 307 307 307 307 307 307 307 307 307 308 308 309 310 310 310 311 310 310 310 310 310 309 308 307 306
259 259 260 261 262 263 264 264 265 265 266 266 267 268 269 270 271 273 274 275 276 277 278 279 280 281 282 283 284 285 285 286 287 288 288 289 290 291 292 293 294 295 296 297 297 298 298 298 299 300 302 303 304 305 305 306 306 306 307 307 307 307 307 307 307 307 307 307 307 308 309 310 310 311 310 310 310 310 310 310 310 309 308 307 306
260 261 262 263 263 264 264 265 265 266 266 267 268 269 270 272 273 275 276 277 279 280 281 282 283 283 283 284 284 285 286 287 288 288 289 290 291 292 293 294 295 295 296 296 297 297 297 298 299 300 302 303 304 304 305 305 306 306 306 307 307 307 306 306 306 306 307 307 308 309 310 311 311 310 310 311 311 311 311 311 310 310 309 308 307
261 262 263 264 265 266 266 267 268 268 269 270 271 272 273 275 276 278 279 280 281 282 283 283 283 283 283 284 284 285 286 287 287 288 289 290 291 292 293 294 294 295 295 295 296 296 296 297 298 300 302 303 303 304 304 305 305 306 306 306 306 306 306 306 306 307 308 308 309 310 310 311 311 310 311 311 311 311 312 312 312 311 310 309 308
262 263 264 265 266 267 268 268 269 270 271 271 272 273 275 276 278 279 280 281 282 283 283 282 282 282 282 283 284 285 285 286 287 288 289 290 291 291 292 292 293 293 294 294 294 295 296 297 298 300 301 302 302 303 304 305 305 305 305 305 305 305 306 306 307 307 308 309 310 310 310 310 310 311 311 311 312 313 313 313 313 313 312 311 310
263 264 265 266 267 267 268 268 269 269 270 271 273 274 276 277 278 279 280 281 282 282 281 280 280 281 282 283 284 284 285 285 286 287 288 289 290 290 290 291 291 291 291 292 293 294 295 296 298 299 300 301 302 303 304 304 304 304 304 304 305 305 306 306 307 308 309 309 310 310 310 310 310 310 311 312 313 314 315 315 315 315 315 314 313
263 264 264 265 266 266 267 267 268 270 271 273 274 275 276 277 278 279 280 280 280 279 279 279 279 280 281 282 283 283 284 284 285 286 287 288 288 289 289 288 289 289 289 290 292 293 294 296 298 299 300 301 302 303 303 303 303 303 304 304 305 305 306 307 307 308 308 309 309 309 309 309 309 310 311 313 314 315 316 316 317 317 318 318 318
Height
5805 5805 5805 5805 5805 5805 5805 5805 5805 5805 5805 5805 5805 5805 5804 5804 5803 5802 5801 5800 5799 5798 5796 5795 5793 5792 5790 5788 5787 5785 5783 5781 5779 5777 5775 5773 5772 5770 5768 5765 5763 5762 5759 5757 5755 5752 5750 5748 5745 5743 5740 5738 5734 5731 5728 5725 5722 5719 5716 5714 5711 5709 5706 5703 5700 5698 5696 5694 5690 5687 5684 5681 5678 5675 5672 5670 5668 5666 5664 5662 5660 5657 5655 5652 5648
5801 5801 5801 5801 5802 5802 5801 5802 5802 5802 5802 5802 5802 5801 5800 5800 5799 5798 5797 5796 5795 5793 5792 5790 5788 5787 5785 5783 5782 5780 5777 5775 5773 5771 5770 5768 5766 5764 5762 5760 5758 5756 5754 5752 5750 5747 5745 5743 5740 5737 5734 5731 5728 5724 5721 5719 5717 5715 5712 5709 5706 5704 5701 5699 5696 5694 5691 5688 5685 5682 5679 5676 5674 5670 5667 5665 5663 5661 5659 5657 5655 5653 5650 5647 5644
5797 5797 5797 5797 5798 5797 5797 5798 5798 5798 5798 5798 5797 5797 5796 5795 5794 5794 5793 5791 5790 5788 5787 5785 5783 5782 5780 5778 5776 5774 5772 5770 5769 5767 5765 5763 5761 5759 5757 5755 5753 5750 5748 5746 5744 5742 5740 5737 5735 5732 5728 5723 5720 5717 5715 5713 5711 5709 5706 5704 5701 5699 5697 5694 5692 5689 5686 5683 5680 5677 5674 5671 5668 5665 5663 5660 5659 5657 5654 5652 5650 5648 5645 5642 5639
5792 5793 5793 5793 5793 5793 5793 5794 5793 5794 5794 5793 5793 5792 5791 5790 5790 5789 5788 5786 5785 5783 5781 5780 5778 5776 5775 5773 5771 5769 5768 5766 5764 5762 5760 5758 5756 5754 5752 5750 5748 5745 5743 5741 5739 5737 5735 5733 5730 5728 5724 5720 5716 5714 5712 5710 5707 5704 5702 5699 5697 5694 5692 5690 5687 5684 5681 5678 5675 5672 5669 5666 5663 5661 5658 5656 5654 5652 5650 5647 5645 5643 5640 5637 5634
5788 5788 5788 5788 5789 5789 5789 5789 5789 5789 5789 5788 5787 5787 5786 5785 5785 5784 5783 5781 5780 5778 5776 5775 5773 5771 5770 5768 5766 5765 5763 5761 5759 5757 5755 5753 5751 5749 5747 5745 5743 5740 5738 5736 5734 5732 5730 5728 5725 5724 5721 5718 5715 5712 5710 5707 5703 5700 5697 5694 5692 5690 5687 5685 5682 5679 5677 5674 5671 5667 5664 5661 5659 5656 5654 5652 5650 5648 5645 5643 5640 5638 5635 5632 5629
5783 5784 5784 5784 5784 5784 5784 5784 5784 5784 5783 5783 5782 5781 5781 5780 5779 5778 5777 5776 5774 5773 5771 5769 5768 5767 5765 5763 5762 5760 5758 5756 5754 5752 5750 5747 5746 5744 5742 5740 5737 5735 5733 5731 5729 5727 5725 5722 5720 5718 5715 5712 5709 5707 5704 5701 5698 5695 5692 5689 5687 5685 5683 5680 5678 5675 5672 5669 5666 5663 5660 5657 5654 5652 5650 5648 5646 5643 5640 5638 5635 5632 5629 5626 5623
5778 5779 5779 5779 5779 5779 5779 5779 5778 5778 5778 5777 5776 5776 5775 5774 5773 5772 5771 5770 5769 5767 5766 5764 5763 5762 5760 5758 5756 5754 5752 5750 5748 5746 5744 5742 5741 5739 5737 5734 5732 5730 5728 5726 5724 5721 5719 5717 5714 5712 5709 5707 5704 5701 5698 5695 5692 5690 5687 5685 5682 5680 5678 5676 5673 5671 5668 5664 5662 5659 5655 5653 5650 5648 5645 5643 5640 5637 5635 5632 5630 5627 5624 5621 5617
5773 5774 5774 5774 5773 5773 5773 5773 5773 5772 5772 5771 5771 5770 5769 5768 5768 5767 5766 5765 5764 5762 5761 5759 5758 5756 5754 5753 5751 5749 5747 5745 5743 5741 5739 5737 5736 5733 5731 5729 5727 5725 5723 5721 5719 5716 5714 5711 5709 5706 5704 5702 5699 5696 5693 5690 5687 5685 5682 5679 5677 5675 5673 5670 5668 5666 5663 5660 5657 5653 5650 5647 5645 5642 5639 5637 5634 5632 5629 5627 5624 5621 5618 5615 5612
5768 5768 5768 5768 5768 5768 5768 5767 5767 5766 5766 5766 5765 5764 5764 5763 5762 5761 5760 5760 5759 5757 5756 5754 5752 5750 5749 5747 5745 5743 5741 5740 5738 5736 5734 5732 5730 5728 5727 5725 5723 5721 5719 5716 5714 5711 5709 5706 5703 5701 5698 5696 5694 5691 5688 5685 5682 5679 5677 5675 5673 5670 5668 5665 5663 5660 5657 5654 5651 5648 5645 5642 5640 5637 5634 5632 5629 5627 5624 5621 5618 5615 5612 5609 5606
5762 5762 5762 5762 5762 5762 5762 5761 5761 5760 5760 5760 5759 5759 5758 5758 5757 5756 5755 5755 5753 5752 5750 5748 5747 5745 5743 5741 5739 5738 5736 5735 5733 5731 5729 5727 5725 5723 5722 5720 5718 5716 5714 5711 5709 5706 5704 5701 5698 5696 5693 5691 5689 5685 5682 5679 5677 5676 5673 5671 5668 5666 5663 5660 5657 5655 5652 5649 5646 5643 5640 5638 5635 5632 5630 5628 5625 5622 5619 5616 5612 5609 5606 5603 5600
5756 5756 5756 5756 5756 5756 5755 5755 5755 5754 5754 5754 5753 5753 5753 5752 5752 5751 5750 5749 5747 5746 5744 5742 5741 5739 5737 5735 5734 5733 5731 5730 5728 5726 5724 5723 5721 5719 5717 5715 5713 5711 5708 5706 5704 5701 5699 5696 5693 5691 5688 5686 5684 5680 5677 5675 5674 5672 5669 5667 5664 5661 5659 5656 5653 5650 5647 5644 5642 5639 5636 5634 5631 5628 5626 5623 5620 5616 5613 5610 5606 5603 5599 5596 5592
5749 5749 5749 5749 5749 5749 5749 5748 5748 5748 5748 5748 5747 5747 5747 5747 5746 5745 5744 5743 5741 5740 5738 5736 5735 5733 5732 5730 5729 5727 5726 5724 5723 5721 5719 5718 5716 5714 5712 5710 5708 5706 5703 5701 5698 5696 5693 5691 5688 5686 5683 5681 5679 5676 5673 5672 5670 5668 5665 5663 5660 5658 5655 5651 5648 5645 5642 5639 5637 5634 5632 5629 5626 5623 5621 5617 5614 5611 5607 5604 5600 5596 5593 5589 5585
5742 5742 5742 5742 5742 5742 5742 5742 5742 5741 5742 5742 5742 5742 5741 5741 5741 5739 5739 5738 5736 5734 5732 5731 5729 5728 5726 5725 5723 5722 5721 5719 5718 5716 5714 5712 5710 5709 5707 5705 5703 5700 5698 5695 5692 5690 5688 5686 5684 5681 5678 5676 5674 5672 5670 5667 5666 5664 5661 5659 5656 5653 5650 5646 5643 5639 5636 5634 5631 5629 5627 5624 5621 5618 5615 5611 5608 5605 5601 5598 5594 5590 5586 5582 5578
5735 5735 5735 5735 5735 5736 5735 5735 5735 5735 5736 5736 5736 5736 5736 5735 5735 5734 5733 5732 5730 5729 5727 5725 5724 5722 5721 5719 5718 5717 5715 5713 5712 5710 5709 5707 5705 5703 5701 5699 5697 5694 5692 5690 5687 5685 5683 5681 5679 5677 5674 5672 5669 5667 5665 5662 5660 5659 5656 5654 5651 5647 5644 5641 5637 5634 5631 5628 5626 5623 5621 5618 5615 5612 5609 5605 5602 5599 5595 5592 5588 5584 5580 5576 5572
5727 5728 5728 5728 5728 5729 5729 5729 5729 5729 5730 5730 5730 5731 5730 5730 5729 5728 5727 5726 5724 5722 5721 5720 5718 5716 5715 5714 5712 5711 5709 5708 5706 5705 5703 5701 5699 5697 5695 5693 5691 5689 5687 5685 5683 5681 5679 5677 5675 5672 5670 5668 5665 5662 5660 5658 5656 5654 5652 5649 5646 5643 5640 5636 5633 5630 5627 5623 5620 5618 5616 5612 5609 5606 5603 5599 5596 5592 5589 5585 5582 5578 5573 5570 5566
5721 5721 5721 5721 5721 5722 5722 5723 5723 5724 5724 5725 5725 5725 5724 5724 5723 5722 5721 5719 5718 5716 5715 5714 5712 5711 5710 5709 5707 5706 5704 5702 5701 5699 5697 5695 5693 5692 5690 5688 5686 5684 5682 5680 5678 5677 5675 5672 5670 5668 5666 5664 5661 5658 5656 5654 5652 5649 5646 5643 5640 5637 5635 5631 5628 5625 5622 5618 5616 5613 5610 5607 5604 5601 5597 5593 5590 5586 5583 5579 5575 5571 5567 5563 5560
5714 5714 5714 5714 5714 5715 5716 5717 5718 5718 5719 5719 5719 5718 5718 5718 5717 5716 5715 5713 5712 5710 5709 5708 5707 5706 5704 5703 5702 5700 5698 5697 5695 5694 5692 5690 5688 5687 5685 5683 5682 5680 5678 5676 5674 5672 5670 5668 5666 5664 5661 5659 5656 5654 5651 5649 5646 5643 5640 5637 5634 5632 5629 5625 5622 5620 5617 5614 5611 5608 5605 5602 5598 5595 5591 5587 5584 5580 5576 5572 5568 5564 5559 5556 5553
5706 5706 5706 5707 5708 5709 5710 5711 5712 5712 5712 5712 5712 5712 5712 5711 5710 5709 5708 5707 5706 5704 5703 5702 5701 5700 5699 5698 5696 5695 5693 5692 5691 5689 5687 5685 5684 5682 5680 5678 5677 5674 5673 5671 5669 5667 5665 5662 5660 5658 5656 5653 5650 5648 5646 5643 5640 5637 5634 5632 5629 5626 5623 5619 5617 5615 5611 5608 5605 5601 5598 5595 5591 5588 5584 5581 5577 5573 5568 5564 5560 5556 5553 5549 5546
5698 5698 5698 5699 5701 5703 5704 5705 5705 5705 5705 5706 5706 5705 5705 5704 5704 5703 5702 5701 5700 5698 5697 5697 5695 5694 5694 5693 5691 5690 5688 5687 5685 5684 5682 5680 5678 5676 5675 5673 5671 5669 5667 5665 5663 5661 5659 5656 5654 5652 5649 5647 5644 5642 5640 5637 5635 5632 5629 5626 5623 5620 5616 5613 5611 5608 5605 5601 5598 5594 5591 5588 5584 5581 5577 5573 5570 5566 5561 5557 5553 5549 5546 5543 5539
5690 5690 5691 5693 5694 5696 5697 5698 5698 5698 5699 5699 5699 5698 5698 5697 5697 5697 5696 5695 5694 5692 5691 5691 5690 5689 5688 5687 5686 5684 5683 5682 5680 5678 5676 5675 5673 5671 5669 5667 5665 5663 5661 5659 5657 5654 5652 5650 5647 5645 5643 5641 5638 5636 5634 5631 5629 5626 5623 5620 5617 5614 5610 5607 5604 5601 5597 5594 5591 5587 5584 5581 5577 5573 5569 5565 5562 5559 5554 5550 5546 5542 5539 5535 5531
5682 5683 5684 5686 5687 5689 5690 5691 5691 5691 5691 5692 5692 5691 5691 5691 5691 5690 5690 5689 5688 5686 5685 5685 5684 5683 5682 5681 5679 5678 5677 5675 5674 5672 5670 5668 5667 5665 5663 5661 5660 5657 5655 5653 5651 5648 5646 5644 5641 5639 5637 5635 5632 5630 5628 5625 5622 5619 5617 5614 5611 5608 5604 5601 5597 5594 5590 5587 5583 5580 5577 5573 5569 5566 5562 5558 5554 5551 5547 5543 5539 5535 5531 5526 5522
5675 5676 5678 5680 5681 5682 5683 5683 5684 5684 5684 5685 5685 5684 5684 5684 5684 5684 5683 5683 5682 5681 5679 5679 5678 5677 5675 5674 5673 5672 5670 5669 5667 5665 5664 5662 5661 5659 5657 5655 5654 5652 5649 5647 5645 5643 5640 5638 5636 5633 5631 5629 5626 5624 5621 5618 5615 5613 5610 5607 5604 5601 5597 5594 5590 5586 5583 5579 5576 5573 5569 5566 5562 5558 5554 5550 5547 5543 5540 5537 5533 5528 5524 5519 5515
5668 5669 5671 5673 5674 5675 5676 5676 5677 5677 5677 5677 5677 5677 5677 5677 5677 5677 5676 5676 5676 5674 5673 5672 5671 5669 5668 5667 5666 5665 5664 5663 5661 5659 5657 5656 5654 5653 5651 5649 5647 5645 5643 5641 5638 5636 5634 5632 5629 5627 5625 5622 5620 5617 5614 5612 5609 5606 5602 5599 5596 5593 5590 5586 5583 5579 5575 5572 5569 5565 5562 5558 5555 5551 5547 5543 5539 5535 5532 5529 5525 5521 5517 5512 5508
5660 5662 5664 5665 5667 5668 5668 5669 5669 5669 5670 5670 5670 5670 5670 5670 5670 5670 5669 5668 5668 5667 5666 5665 5664 5663 5662 5661 5660 5658 5657 5656 5654 5653 5651 5649 5647 5646 5644 5642 5640 5638 5636 5634 5631 5629 5627 5625 5622 5620 5618 5615 5613 5610 5607 5604 5601 5598 5594 5591 5588 5585 5582 5579 5575 5572 5569 5565 5562 5558 5554 5551 5547 5543 5539 5535 5531 5527 5523 5520 5517 5513 5509 5505 5501
5653 5655 5657 5658 5659 5660 5661 5661 5662 5662 5663 5663 5663 5663 5663 5663 5663 5662 5662 5661 5660 5659 5658 5658 5657 5656 5655 5654 5653 5652 5651 5649 5648 5646 5644 5642 5640 5639 5637 5635 5633 5631 5629 5626 5624 5622 5620 5617 5615 5613 5610 5608 5605 5602 5599 5596 5593 5590 5587 5584 5581 5578 5575 5572 5568 5565 5562 5559 5555 5551 5547 5543 5539 5536 5532 5528 5524 5519 5515 5511 5507 5504 5501 5498 5494
5646 5648 5649 5651 5652 5653 5654 5654 5654 5655 5655 5655 5656 5656 5656 5656 5655 5655 5654 5654 5653 5652 5651 5650 5650 5649 5648 5647 5646 5645 5644 5642 5641 5639 5637 5635 5634 5632 5630 5628 5626 5624 5621 5619 5616 5614 5612 5610 5607 5605 5602 5600 5597 5594 5591 5588 5585 5583 5580 5577 5574 5571 5568 5564 5561 5558 5555 5551 5547 5544 5540 5536 5532 5528 5524 5520 5516 5512 5507 5502 5499 5495 5492 5489 5486
5639 5641 5642 5643 5644 5645 5646 5647 5647 5648 5648 5648 5649 5649 5649 5649 5648 5648 5648 5647 5646 5645 5644 5643 5642 5641 5640 5640 5639 5638 5636 5635 5633 5632 5630 5628 5627 5625 5623 5621 5618 5616 5613 5611 5609 5607 5604 5602 5599 5597 5595 5592 5590 5587 5584 5581 5578 5575 5573 5570 5567 5563 5560 5557 5554 5550 5547 5543 5540 5536 5533 5529 5525 5521 5517 5513 5508 5504 5499 5494 5491 5487 5484 5480 5477
5632 5633 5635 5636 5637 5638 5639 5640 5640 5640 5640 5641 5641 5641 5641 5641 5641 5641 5640 5640 5639 5638 5637 5636 5635 5634 5633 5632 5631 5630 5629 5627 5626 5624 5623 5621 5619 5617 5615 5613 5611 5608 5606 5603 5601 5599 5596 5594 5592 5589 5587 5585 5582 5579 5577 5574 5571 5567 5565 5562 5559 5556 5553 5549 5546 5543 5539 5535 5532 5529 5525 5521 5518 5514 5509 5505 5501 5496 5491 5486 5482 5479 5475 5472 5469
5625 5626 5627 5629 5630 5631 5632 5633 5633 5633 5633 5633 5633 5633 5634 5634 5633 5633 5633 5632 5631 5631 5630 5629 5628 5627 5626 5624 5623 5622 5621 5619 5618 5617 5615 5614 5612 5610 5608 5605 5603 5601 5598 5596 5594 5591 5589 5587 5584 5582 5580 5577 5574 5571 5569 5566 5563 5560 5556 5554 5551 5548 5545 5541 5538 5535 5531 5528 5524 5521 5517 5514 5510 5506 5501 5497 5493 5488 5483 5478 5474 5470 5467 5463 5461
5619 5619 5621 5622 5623 5624 5625 5625 5625 5625 5625 5626 5626 5626 5626 5626 5626 5626 5625 5624 5624 5623 5622 5621 5620 5619 5618 5617 5615 5614 5612 5611 5610 5609 5607 5606 5604 5602 5600 5598 5596 5593 5591 5588 5586 5584 5581 5579 5577 5574 5572 5569 5566 5563 5561 5558 5554 5551 5548 5545 5542 5539 5536 5533 5530 5527 5523 5520 5516 5512 5508 5505 5501 5497 5492 5488 5484 5479 5474 5470 5465 5461 5457 5454 5451
5611 5612 5614 5615 5615 5616 5617 5617 5617 5618 5618 5618 5618 5618 5618 5618 5618 5617 5617 5616 5616 5615 5614 5613 5612 5611 5610 5609 5607 5606 5605 5603 5602 5600 5599 5598 5596 5594 5593 5591 5588 5586 5583 5581 5579 5576 5574 5571 5569 5567 5564 5561 5558 5556 5552 5549 5546 5543 5540 5536 5533 5530 5527 5524 5521 5518 5515 5511 5508 5503 5499 5495 5491 5487 5483 5478 5474 5470 5465 5461 5456 5452 5448 5443 5440
5604 5605 5606 5607 5607 5608 5609 5609 5610 5610 5610 5611 5610 5610 5610 5610 5610 5610 5609 5608 5607 5606 5606 5605 5604 5603 5602 5601 5600 5598 5597 5596 5594 5592 5591 5589 5588 5587 5585 5583 5581 5578 5576 5573 5571 5568 5566 5563 5561 5559 5556 5553 5550 5547 5544 5541 5537 5534 5531 5528 5524 5521 5518 5514 5511 5508 5505 5502 5498 5494 5490 5485 5481 5477 5473 5469 5465 5461 5457 5452 5447 5443 5438 5434 5429
5596 5597 5598 5599 5600 5600 5601 5602 5602 5602 5602 5603 5602 5602 5602 5602 5602 5602 5601 5600 5599 5598 5597 5596 5595 5595 5594 5593 5592 5590 5589 5588 5586 5584 5583 5581 5580 5578 5577 5575 5573 5570 5568 5565 5563 5560 5558 5555 5552 5550 5547 5544 5542 5538 5535 5532 5529 5526 5523 5520 5516 5512 5509 5505 5502 5498 5495 5491 5488 5484 5480 5476 5472 5468 5464 5460 5456 5452 5448 5443 5438 5433 5429 5424 5419
5587 5589 5590 5591 5592 5592 5593 5594 5594 5594 5595 5595 5594 5594 5594 5594 5594 5593 5592 5592 5591 5590 5589 5588 5587 5587 5586 5584 5583 5582 5581 5580 5578 5576 5575 5573 5572 5570 5568 5566 5564 5562 5559 5557 5554 5551 5549 5546 5544 5541 5538 5535 5533 5530 5527 5524 5521 5517 5514 5511 5507 5504 5500 5496 5493 5489 5485 5481 5478 5474 5470 5466 5462 5458 5455 5451 5446 5442 5437 5432 5427 5422 5417 5412 5407
5579 5580 5581 5583 5584 5584 5585 5586 5586 5586 5586 5586 5586 5586 5586 5585 5585 5584 5584 5583 5582 5582 5581 5581 5580 5579 5578 5576 5575 5574 5572 5571 5570 5568 5566 5565 5563 5561 5560 5558 5556 5553 5550 5548 5545 5542 5540 5537 5535 5532 5530 5527 5524 5521 5518 5515 5512 5508 5505 5502 5498 5495 5491 5487 5483 5480 5476 5472 5468 5464 5460 5456 5452 5448 5444 5440 5436 5431 5426 5421 5415 5410 5405 5399 5394
5572 5572 5573 5574 5575 5576 5576 5577 5577 5577 5577 5577 5577 5577 5577 5577 5576 5576 5576 5575 5574 5574 5573 5572 5571 5570 5569 5568 5567 5565 5563 5562 5561 5559 5557 5556 5554 5552 5550 5548 5546 5544 5541 5539 5536 5533 5530 5528 5526 5523 5520 5518 5515 5512 5509 5506 5502 5499 5496 5492 5489 5485 5481 5477 5474 5470 5466 5462 5458 5454 5449 5445 5441 5436 5432 5428 5424 5419 5414 5408 5402 5396 5391 5385 5379
5563 5564 5565 5566 5566 5567 5568 5568 5568 5569 5569 5569 5569 5569 5568 5568 5568 5567 5567 5566 5566 5565 5564 5563 5562 5561 5559 5558 5557 5556 5554 5553 5551 5550 5548 5546 5544 5542 5540 5538 5536 5534 5532 5530 5528 5525 5522 5520 5517 5514 5511 5508 5506 5503 5500 5496 5493 5490 5486 5483 5479 5475 5472 5468 5464 5460 5456 5452 5448 5443 5439 5434 5429 5424 5419 5416 5412 5406 5400 5395 5388 5382 5377 5370 5364
5555 5555 5556 5557 5558 5559 5559 5559 5560 5560 5560 5560 5560 5560 5560 5560 5559 5559 5558 5557 5556 5556 5555 5554 5553 5551 5550 5549 5548 5546 5545 5544 5542 5541 5539 5537 5535 5533 5531 5529 5527 5525 5523 5521 5518 5516 5513 5511 5508 5505 5502 5499 5496 5493 5490 5487 5483 5480 5477 5473 5469 5465 5461 5457 5453 5449 5445 5442 5437 5433 5428 5424 5419 5413 5408 5403 5399 5393 5387 5381 5374 5368 5362 5356 5349
5547 5548 5549 5549 5550 5550 5550 5551 5551 5551 5551 5552 5552 5551 5551 5551 5551 5550 5549 5548 5547 5546 5545 5544 5543 5542 5541 5540 5539 5538 5536 5535 5533 5532 5530 5528 5526 5524 5522 5520 5517 5515 5513 5511 5509 5506 5504 5501 5498 5496 5493 5490 5487 5484 5481 5477 5473 5470 5466 5462 5459 5455 5450 5446 5442 5438 5434 5430 5426 5421 5417 5412 5407 5402 5396 5391 5385 5380 5374 5368 5361 5354 5347 5341 5334
5539 5540 5540 5541 5541 5542 5542 5542 5542 5543 5543 5543 5543 5543 5543 5542 5542 5541 5540 5539 5538 5538 5537 5536 5535 5534 5533 5531 5530 5529 5527 5525 5524 5523 5521 5519 5517 5515 5513 5511 5508 5506 5504 5501 5499 5497 5494 5491 5489 5486 5483 5480 5477 5474 5470 5467 5463 5459 5455 5451 5447 5443 5439 5435 5431 5427 5423 5419 5414 5410 5405 5400 5394 5389 5384 5378 5371 5366 5360 5353 5346 5339 5333 5327 5320
5530 5531 5531 5532 5533 5533 5533 5534 5534 5534 5535 5534 5534 5534 5534 5533 5532 5532 5531 5530 5529 5529 5528 5527 5526 5524 5523 5522 5521 5520 5518 5516 5515 5513 5511 5510 5508 5505 5503 5501 5499 5496 5494 5492 5489 5487 5484 5481 5479 5476 5472 5469 5466 5463 5459 5455 5451 5448 5444 5440 5436 5432 5428 5423 5419 5415 5411 5407 5402 5397 5392 5387 5381 5376 5370 5364 5357 5351 5344 5338 5331 5325 5318 5312 5305
5521 5522 5523 5523 5524 5524 5525 5525 5525 5525 5525 5525 5525 5524 5524 5523 5523 5522 5521 5521 5520 5519 5519 5518 5516 5515 5514 5513 5511 5510 5508 5507 5505 5503 5502 5500 5498 5496 5493 5491 5489 5486 5484 5481 5479 5476 5473 5471 5468 5465 5461 5458 5455 5451 5448 5444 5440 5436 5433 5429 5424 5420 5416 5412 5407 5403 5399 5395 5390 5385 5379 5373 5367 5361 5356 5349 5342 5336 5330 5323 5317 5310 5304 5297 5290
5512 5513 5514 5514 5515 5515 5515 5515 5516 5515 5515 5515 5515 5514 5514 5514 5513 5513 5512 5512 5511 5510 5509 5508 5507 5505 5504 5502 5501 5500 5498 5497 5495 5493 5491 5489 5487 5485 5483 5481 5478 5476 5473 5471 5469 5466 5463 5460 5456 5453 5450 5447 5443 5440 5436 5432 5429 5425 5421 5417 5413 5408 5404 5400 5396 5391 5386 5382 5377 5372 5366 5360 5353 5347 5341 5334 5328 5322 5316 5309 5302 5296 5290 5283 5277
5503 5504 5504 5505 5505 5506 5506 5506 5506 5506 5505 5506 5505 5505 5505 5504 5504 5503 5503 5502 5501 5500 5499 5498 5496 5495 5494 5492 5491 5489 5488 5486 5484 5483 5481 5479 5477 5475 5473 5470 5468 5465 5463 5460 5458 5455 5452 5449 5445 5442 5438 5435 5432 5428 5424 5420 5417 5413 5409 5405 5401 5397 5392 5388 5383 5378 5374 5369 5364 5358 5353 5346 5340 5333 5327 5320 5314 5308 5302 5295 5288 5282 5276 5270 5264
5493 5494 5495 5495 5496 5496 5496 5496 5496 5496 5496 5496 5495 5495 5495 5495 5494 5494 5493 5492 5491 5490 5489 5488 5487 5485 5484 5483 5481 5479 5478 5476 5474 5472 5471 5469 5466 5464 5462 5459 5457 5454 5451 5449 5446 5444 5441 5438 5435 5431 5427 5424 5420 5416 5412 5408 5404 5401 5397 5393 5389 5384 5380 5375 5370 5365 5361 5356 5350 5345 5339 5333 5326 5320 5313 5307 5301 5295 5289 5282 5276 5270 5264 5258 5253
5482 5483 5484 5484 5485 5485 5486 5486 5486 5486 5486 5486 5485 5485 5485 5485 5484 5484 5483 5482 5481 5480 5479 5478 5477 5475 5474 5473 5471 5469 5467 5465 5463 5462 5460 5457 5455 5453 5450 5448 5445 5442 5439 5437 5434 5432 5429 5426 5423 5420 5416 5412 5408 5404 5400 5396 5392 5388 5384 5380 5376 5371 5367 5362 5357 5352 5347 5342 5337 5331 5325 5319 5313 5306 5300 5295 5289 5283 5277 5271 5265 5260 5254 5248 5243
5472 5473 5473 5474 5475 5475 5475 5475 5476 5476 5476 5475 5475 5475 5475 5475 5474 5474 5473 5472 5471 5470 5469 5468 5467 5465 5464 5462 5461 5459 5457 5455 5453 5451 5449 5447 5444 5442 5440 5437 5434 5431 5428 5426 5423 5420 5417 5415 5412 5409 5405 5401 5397 5392 5388 5384 5380 5375 5371 5366 5362 5358 5353 5348 5343 5338 5333 5328 5322 5316 5310 5305 5300 5294 5288 5283 5277 5272 5266 5261 5256 5250 5245 5239 5234
5463 5463 5464 5464 5465 5465 5465 5465 5465 5465 5465 5465 5465 5464 5464 5464 5463 5463 5462 5461 5460 5460 5459 5458 5456 5455 5454 5453 5451 5449 5447 5445 5443 5441 5439 5437 5434 5432 5429 5426 5423 5420 5417 5414 5411 5409 5406 5403 5400 5397 5393 5389 5385 5381 5376 5372 5367 5363 5358 5353 5349 5344 5339 5334 5329 5324 5319 5313 5308 5302 5297 5292 5287 5282 5277 5272 5267 5262 5257 5252 5247 5242 5237 5231 5226
5454 5454 5454 5455 5455 5455 5456 5456 5455 5455 5455 5455 5454 5454 5454 5453 5453 5452 5452 5451 5450 5449 5448 5447 5446 5445 5444 5442 5441 5439 5437 5435 5433 5431 5429 5426 5424 5421 5418 5415 5412 5409 5406 5403 5400 5397 5394 5391 5388 5384 5381 5377 5373 5369 5364 5360 5355 5350 5345 5340 5336 5331 5326 5321 5316 5311 5306 5300 5295 5290 5285 5280 5275 5271 5267 5263 5258 5254 5249 5245 5240 5235 5230 5224 5219
5444 5444 5445 5445 5446 5446 5446 5446 5445 5445 5445 5444 5444 5444 5443 5443 5442 5442 5441 5440 5440 5439 5438 5437 5436 5434 5433 5432 5430 5428 5426 5424 5422 5420 5418 5415 5413 5410 5407 5404 5401 5398 5395 5391 5388 5385 5382 5379 5376 5372 5368 5365 5361 5356 5352 5347 5343 5338 5333 5328 5323 5318 5313 5308 5303 5298 5293 5289 5284 5279 5275 5270 5266 5262 5258 5255 5251 5247 5243 5238 5233 5229 5224 5219 5214
5435 5435 5435 5436 5436 5436 5436 5436 5435 5435 5435 5435 5434 5434 5433 5432 5432 5431 5430 5430 5429 5428 5427 5426 5425 5423 5422 5421 5419 5417 5415 5413 5411 5408 5406 5403 5401 5398 5396 5393 5389 5386 5383 5380 5377 5373 5370 5367 5363 5359 5356 5352 5348 5344 5340 5335 5330 5325 5320 5315 5310 5305 5300 5295 5290 5286 5281 5278 5274 5270 5266 5262 5258 5254 5251 5248 5245 5241 5237 5232 5228 5224 5219 5214 5209